This is the latest recevied weather packets stored in our database for station/object WC4PEM-12. If no packets are shown the sender has not sent any weather packets the latest 10 day(s).
| Time | Temp. | Humidity | Pressure | Rain* | Wind** | Luminosity | Snow |
|---|---|---|---|---|---|---|---|
| 1777669387 | 32.78° C | 45% | 1008.9 hPa | 0 mm | - | - | - |
| 1777669087 | 32.78° C | 43% | 1009 hPa | 0 mm | - | - | - |
| 1777668827 | 32.78° C | 43% | 1009 hPa | 0 mm | - | - | - |
| 1777668787 | 32.78° C | 43% | 1009 hPa | 0 mm | - | - | - |
| 1777668487 | 32.78° C | 42% | 1008.9 hPa | 0 mm | - | - | - |
| 1777668231 | 32.78° C | 42% | 1009 hPa | 0 mm | - | - | - |
| 1777668187 | 32.78° C | 42% | 1009 hPa | 0 mm | - | - | - |
| 1777667887 | 32.78° C | 44% | 1008.9 hPa | 0 mm | - | - | - |
| 1777667651 | 32.22° C | 44% | 1008.9 hPa | 0 mm | - | - | - |
| 1777667587 | 32.22° C | 44% | 1008.9 hPa | 0 mm | - | - | - |
| 1777667287 | 32.78° C | 42% | 1009.1 hPa | 0 mm | - | - | - |
| 1777666987 | 32.78° C | 43% | 1009.1 hPa | 0 mm | - | - | - |
| 1777666687 | 32.78° C | 43% | 1009.2 hPa | 0 mm | - | - | - |
| 1777666519 | 32.78° C | 43% | 1009.4 hPa | 0 mm | - | - | - |
| 1777666387 | 32.78° C | 43% | 1009.4 hPa | 0 mm | - | - | - |
| 1777666087 | 32.22° C | 44% | 1009.4 hPa | 0 mm | - | - | - |
| 1777665885 | 32.22° C | 44% | 1009.5 hPa | 0 mm | - | - | - |
| 1777665787 | 32.22° C | 44% | 1009.5 hPa | 0 mm | - | - | - |
| 1777665487 | 32.78° C | 43% | 1009.6 hPa | 0 mm | - | - | - |
| 1777665187 | 32.78° C | 41% | 1009.8 hPa | 0 mm | - | - | - |
| 1777664887 | 32.78° C | 44% | 1009.8 hPa | 0 mm | - | - | - |
| 1777664629 | 32.78° C | 42% | 1010 hPa | 0 mm | - | - | - |
| 1777664587 | 32.78° C | 42% | 1010 hPa | 0 mm | - | - | - |
| 1777664287 | 32.78° C | 42% | 1010 hPa | 0 mm | - | - | - |
| 1777664055 | 32.78° C | 43% | 1010.3 hPa | 0 mm | - | - | - |
* Rain latest hour (hover to see other rain measurements)
** Current wind speed in m/s (hover to see current wind gust speed)